Regional Weather Roundup
Issued by NWS

Home | Current Version | Previous Version | Graphics & Text | Print | Product List | Glossary On
Versions: 1 2 3 4 5 6 7 8 9 10 11 12 13 14 15 16 17 18 19 20 21 22 23 24 25 26 27 28 29 30 31 32 33 34 35 36 37 38 39 40 41 42 43 44 45 46 47 48 49 50
000
ASUS43 KDMX 301207
RWRIA

WEATHER ROUNDUP FOR IOWA
NATIONAL WEATHER SERVICE DES MOINES IA
700 AM CDT SAT AUG 30 2014

NOTE: "FAIR" INDICATES FEW OR NO CLOUDS BELOW 12,000 FEET WITH NO
SIGNIFICANT WEATHER AND/OR OBSTRUCTIONS TO VISIBILITY.

* - THESE STATIONS ARE NOT NWS STATIONS...THUS NOT UNDER NWS
QUALITY CONTROL.  THEY ALSO DO NOT REPORT WEATHER SUCH
AS PRECIPITATION OR FOG.

IAZ001>003-012>014-020>022-031>034-043>046-301300-
   NORTHWEST IOWA

CITY           SKY/WX    TMP DP  RH WIND       PRES   REMARKS
CARROLL *      CLOUDY    66  66 100 NW9       29.88R FOG
CHEROKEE *     CLOUDY    64  64 100 CALM      29.89R FOG
DENISON *      CLOUDY    66  66 100 W6        29.88R FOG
LE MARS *        N/A     66  66 100 NW6       29.91R
ORANGE CITY *  CLOUDY    66  64  94 NW8       29.90R FOG
SHELDON *      CLOUDY    63  63 100 NW8       29.88R FOG
SIOUX CITY     CLOUDY    65  64  97 NW8       29.91R FOG
6HR MIN TEMP:  64; 6HR MAX TEMP:  67;

SPENCER        CLOUDY    64  63  96 NW12      29.88R FOG
6HR MIN TEMP:  62; 6HR MAX TEMP:  65; 6HR PCP: TRACE;

STORM LAKE *   FOG       64  64 100 VRB6      29.89R VSB 0
$$

IAZ055>058-069>071-079>083-090>094-301300-
   SOUTHWEST IOWA

CITY           SKY/WX    TMP DP  RH WIND       PRES   REMARKS
ATLANTIC *     CLOUDY    66  66 100 W7        29.90R FOG
AUDUBON *      CLOUDY    68  66  94 W6        29.91R FOG
CLARINDA *     FOG       66  66 100 NW5       29.92R VSB 1/4
COUNCIL BLFS * CLEAR     63  63 100 NW6       29.91R
CRESTON *      CLOUDY    66  66 100 W8        29.90R FOG
HARLAN  *      CLOUDY    66  66 100 W6        29.94R FOG
LAMONI         CLOUDY    65  64  97 SW5       29.89R FOG
6HR MIN TEMP:  65; 6HR MAX TEMP:  68;

RED OAK *      CLOUDY    66  66 100 NW3       29.91R FOG
SHENANDOAH *   FOG       63  63 100 SW3       29.92R VSB 0
$$

IAZ047>049-059>061-072>074-084-301300-
   CENTRAL IOWA

CITY           SKY/WX    TMP DP  RH WIND       PRES   REMARKS
AMES           CLOUDY    66  65  96 W10       29.86R
6HR MIN TEMP:  65; 6HR MAX TEMP:  67; 6HR PCP:  0.01;

ANKENY *       CLOUDY    66  66 100 W8        29.85R
CHARITON *     MOCLDY    64  64 100 SW6       29.87R FOG
DES MOINES     MOCLDY    67  64  90 W5        29.86R
6HR MIN TEMP:  66; 6HR MAX TEMP:  70; 6HR PCP: TRACE;

GRINNELL*      CLOUDY    66  64  94 W9        29.86R
KNOXVILLE *    PTCLDY    64  63  94 W7        29.85R
MARSHALLTOWN   MOCLDY    67  65  93 W8        29.83R
6HR MIN TEMP:  66; 6HR MAX TEMP:  68; 6HR PCP:  0.01;

PELLA *        CLEAR     66  65  97 W7        29.87R
PERRY *        CLOUDY    66  64  94 W5        29.87R
$$

IAZ004>006-015-016-023>025-035-036-301300-
   NORTH CENTRAL IOWA

CITY           SKY/WX    TMP DP  RH WIND       PRES   REMARKS
ALGONA *       CLOUDY    66  66 100 NW10      29.86R
CLARION *      CLOUDY    64  64 100 NW8       29.84R
ESTHERVILLE    CLOUDY    65  64  97 NW9       29.87R
6HR MIN TEMP:  63; 6HR MAX TEMP:  66; 6HR PCP: TRACE;

FORT DODGE *   CLOUDY    64  64 100 W5        29.87R
MASON CITY     CLOUDY    67  66  97 NW10      29.84R
6HR MIN TEMP:  65; 6HR MAX TEMP:  67; 6HR PCP: TRACE;

FOREST CITY *  CLOUDY    64  64 100 W7        29.84R
IOWA FALLS *   CLOUDY    66  64  95 W10       29.85R
$$

IAZ007>011-017>019-026>030-037>042-050>054-066-301300-
   NORTHEAST IOWA

CITY           SKY/WX    TMP DP  RH WIND       PRES   REMARKS
CEDAR RAPIDS   CLOUDY    67  66  97 SW9       29.81R
6HR MIN TEMP:  66; 6HR MAX TEMP:  70; 6HR PCP:  0.12;

CHARLES CITY * CLOUDY    66  64  94 W9        29.82R FOG
CLINTON *      CLOUDY    68  66  94 S8        29.83S
DECORAH *      LGT RAIN  66  64  94 CALM      29.78R
DUBUQUE        CLOUDY    67  66  97 SW9       29.80R
6HR MIN TEMP:  67; 6HR MAX TEMP:  70; 6HR PCP:  0.02;

MONTICELLO *   CLOUDY    68  66  94 SW8       29.79S
OELWEIN *      CLOUDY    66  66 100 W7        29.81R
WATERLOO       CLOUDY    68  66  93 W8        29.80R
6HR MIN TEMP:  67; 6HR MAX TEMP:  68; 6HR PCP:  0.21;

$$

IAZ064-065-067-068-078-301300-
   EAST CENTRAL IOWA

CITY           SKY/WX    TMP DP  RH WIND       PRES   REMARKS
DAVENPORT      CLOUDY    69  67  93 SW8       29.82S
6HR MIN TEMP:  68; 6HR MAX TEMP:  71; 6HR PCP:  0.05;

IOWA CITY      CLOUDY    67  66  97 W12       29.83R
6HR MIN TEMP:  67; 6HR MAX TEMP:  71; 6HR PCP:  0.04;

MT. PLEASANT * PTCLDY    68  66  95 SW6       29.86R
MUSCATINE *    MOCLDY    70  66  88 SW10      29.84R
QUAD CITIES    MOCLDY    69  67  93 SW7       29.82R
6HR MIN TEMP:  68; 6HR MAX TEMP:  71; 6HR PCP:  0.30;

$$

IAZ062-063-075>077-085>089-095>099-301300-
   SOUTHEAST IOWA

CITY           SKY/WX    TMP DP  RH WIND       PRES   REMARKS
BURLINGTON     CLEAR     69  67  93 SW9       29.86R
6HR MIN TEMP:  69; 6HR MAX TEMP:  73; 6HR PCP:  0.13;

FAIRFIELD *    CLEAR     66  64  94 SW7G14    29.86R
FORT MADISON * CLEAR     70  70 100 SW9       29.88R
KEOKUK *       MOCLDY    70  68  94 SW9       29.88R
OSKALOOSA *      N/A     64  63  97 W5        29.86R
CENTERVILLE *  PTCLDY    64  64 100 SW5       29.89R
OTTUMWA        CLEAR     65  64  97 W6        29.86R
6HR MIN TEMP:  65; 6HR MAX TEMP:  68; 6HR PCP:  0.01;

WASHINGTON *   MOCLDY    68  68 100 W7G15     29.85R
$$

ABBREVIATIONS USED IN REMARKS
   TC - TEMPERATURES IN CELSIUS
  WCI - WIND CHILL INDEX
   HX - HEAT INDEX
  VSB - VISIBILITY
$$



USA.gov is the U.S. government's official web portal to all federal, state and local government web resources and services.